Tracking 17699 objects as of 31-May-2016
HD Live streaming from Space Station
objects crossing your sky now

SL-16 DEB

Track SL-16 DEB now!
10-day predictions


NORAD ID: 19658
Int'l Code: 1988-102E
Perigee: 844.6 km
Apogee: 1,138.1 km
Inclination: 71.0 °
Period: 104.8 minutes
Semi major axis: 7362 km
RCS: 0.0923 m2 (small)
Launch date: November 23, 1988
Source: Commonwealth of Independent States (former USSR) (CIS)
Launch site: TYURATAM MISSILE AND SPACE COMPLEX (TTMTR)

Note: This is SATELLITE DEBRIS
Your satellite tracking list
Your tracking list is empty





NASA's NSSDC Master Catalog

Two Line Element Set (TLE):
1 19658U 88102E   16151.55729462  .00000069  00000-0  10303-3 0  9997
2 19658  71.0227 104.9639 0199291 202.3569 276.2489 13.74285902379592
Source of the keplerian elements: AFSPC

N2YO: 681